{"data":{"norad_id":55489,"epoch":"2026-05-25T01:21:27.476064Z","epoch_age_seconds":60238,"freshness":"FRESH","line1":"1 55489U 23015AS  26145.05656801  .00000904  00000+0  42382-4 0  9996","line2":"2 55489  43.0045 268.5384 0000875 284.8623  75.2132 15.27574145182279","mean_motion":15.27574145,"eccentricity":8.75e-5,"inclination_deg":43.0045,"raan_deg":268.5384,"arg_perigee_deg":284.8623,"mean_anomaly_deg":75.2132,"bstar":4.2382e-5,"rev_number":18227,"period_min":94.26711002627,"perigee_km":482.46627275452,"apogee_km":483.66698338943,"semimajor_km":6861.203628072,"source":"CELESTRAK","updated_at":"2026-05-25T13:38:17.810677Z"}}